Terminal Aerodrome Forecast
Issued by NWS New Orleans/Baton Rouge, LA

Home | Current Version | Previous Version | Text Only | Print | Product List | Glossary On
Versions: 1 2 3 4 5 6 7 8 9 10 11 12 13 14 15 16
000
FTUS44 KLIX 232300
TAFBTR
TAF
KBTR 232321Z 2400/2424 VRB03KT P6SM SKC
     FM241000 00000KT P6SM SCT015
      TEMPO 2410/2413 4SM BR
     FM241400 18006KT P6SM SCT030=

USA.gov is the U.S. government's official web portal to all federal, state and local government web resources and services.